Regional Weather Roundup
Issued by NWS

Home | Current Version | Previous Version | Text Only | Print | Product List | Glossary On
Versions: 1 2 3 4 5 6 7 8 9 10 11 12 13 14 15 16 17 18 19 20 21 22 23 24 25 26 27 28 29 30 31 32 33 34 35 36 37 38 39 40 41 42 43 44 45 46 47 48 49 50
000
ASUS46 KPQR 302310
RWROR

OREGON REGIONAL WEATHER ROUNDUP
NATIONAL WEATHER SERVICE PORTLAND OR
400 PM PDT MON MAR 30 2015

NOTE: "FAIR" INDICATES FEW OR NO CLOUDS BELOW 12,000 FEET WITH
NO SIGNIFICANT WEATHER AND/OR OBSTRUCTIONS TO VISIBILITY.

ORZ001>013-310000-
NORTHWEST OREGON


CITY           SKY/WX    TMP DP  RH WIND       PRES   REMARKS
ASTORIA        PTSUNNY   55  48  77 SW8G20    29.96F
NEWPORT        CLOUDY    54  50  87 SW12      30.04F
PORTLAND       PTSUNNY   66  46  48 NE3       29.95F
VANCOUVER WA   PTSUNNY   65  45  48 CALM      29.94F
SCAPPOOSE      MOSUNNY   65  46  50 SE5       29.93F
HILLSBORO      PTSUNNY   66  45  46 VRB3      29.94F
AURORA         PTSUNNY   63  48  58 CALM      29.96F
MCMINNVILLE    MOSUNNY   66  50  56 CALM      29.95F
SALEM          PTSUNNY   68  44  42 S9        29.94F
CORVALLIS      MOSUNNY   70  52  52 SE7       29.96F
EUGENE         PTSUNNY   71  43  36 SW8       29.96F
$$

ORZ021-028-310000-
SOUTHWEST OREGON


CITY           SKY/WX    TMP DP  RH WIND       PRES   REMARKS
NORTH BEND     PTSUNNY   57  52  82 W12       30.05S
BROOKINGS      PTSUNNY   54  52  94 VRB5      30.11S
ROSEBURG       MOSUNNY   73  44  35 VRB6      29.96F
SEXTON SUMMIT  MOSUNNY   62  37  39 VRB6      30.03F
MEDFORD        SUNNY     74  41  30 E5        29.96F
$$

ORZ014>016-041-310000-
COLUMBIA GORGE


CITY           SKY/WX    TMP DP  RH WIND       PRES   REMARKS
TROUTDALE      CLOUDY    68  46  45 NW6       29.94F
THE DALLES     PTSUNNY   67  41  38 CALM      29.91F
$$

ORZ029>031-041-044-049-050-061>064-502-503-505>511-310000-
EASTERN OREGON


CITY           SKY/WX    TMP DP  RH WIND       PRES   REMARKS
REDMOND        CLOUDY    69  33  26 N9        29.93F
BEND           CLOUDY    68  32  26 N8        29.93F
PRINEVILLE     CLOUDY    70  28  21 VRB5      29.94F
KLAMATH FALLS  MOSUNNY   71  36  27 S8        29.99F
LAKEVIEW       MOSUNNY   72  27  18 SW18      30.03F
HERMISTON      CLOUDY    69  40  34 VRB3      29.92F
PENDLETON      CLOUDY    66  44  45 NW6       29.93F
JOHN DAY       PTSUNNY   73  32  21 S12       29.95F
MEACHAM        CLOUDY    64  41  42 VRB3      29.98F
LA GRANDE      CLOUDY    72  36  26 S17G25    29.94F
BAKER CITY     PTSUNNY   70  34  26 E15G25    29.98F
BURNS          MOSUNNY   72  29  20 NE5       29.99F
ROME             N/A     78  11   8 S13G18    29.98F
ONTARIO        SUNNY     72  37  28 N5        30.00F
$$



USA.gov is the U.S. government's official web portal to all federal, state and local government web resources and services.